Waarnemingen

Advertentie
Mijn weer
Elsenborn, België (6496): temperatuur & dauwpunt: 19.04.2018 14:00:00 - 25.04.2018 14:00:00 (CEST)Elsenborn, België (6496): windsnelheid & windstoten: 19.04.2018 14:00:00 - 25.04.2018 14:00:00 (CEST)Elsenborn, België (6496): windrichting: 19.04.2018 14:00:00 - 25.04.2018 14:00:00 (CEST)Elsenborn, België (6496): luchtdruk: 19.04.2018 14:00:00 - 25.04.2018 14:00:00 (CEST)Elsenborn, België (6496): zicht: 19.04.2018 14:00:00 - 25.04.2018 14:00:00 (CEST)
Datum & Tijd tt [°C] td [°C] ff [km/u] ff [kn] fx [km/u] fx [kn] dd ppp [hPa] vv [km]
25.04.2018 14:00:00 12,2 6,5 22 12 - - W 1012,6 19
25.04.2018 13:00:00 10,2 6,9 14 8 32 18 W 1013,0 20
25.04.2018 12:00:00 8,9 7,0 18 10 32 18 W 1013,0 20
25.04.2018 11:00:00 8,6 7,8 22 12 - - W 1012,8 9
25.04.2018 10:00:00 9,6 8,5 18 10 43 23 W 1011,5 14
25.04.2018 09:00:00 9,0 8,4 22 12 40 21 W 1011,3 7
25.04.2018 08:00:00 9,8 7,5 22 12 - - W 1010,8 20
25.04.2018 07:00:00 9,6 8,2 14 8 36 19 W 1010,5 13
25.04.2018 06:00:00 9,8 7,8 18 10 32 18 WZW 1010,3 17
25.04.2018 05:00:00 9,6 6,9 14 8 - - WZW 1010,5 20
25.04.2018 04:00:00 10,2 6,6 14 8 29 16 ZW 1010,6 20
25.04.2018 03:00:00 9,8 6,4 14 8 25 14 ZW 1011,1 20
25.04.2018 02:00:00 9,6 6,4 11 6 - - ZW 1012,0 20
25.04.2018 01:00:00 9,4 6,6 7 4 14 8 Z 1012,7 19
25.04.2018 00:00:00 10,2 7,1 7 4 18 10 ZW 1013,3 20
24.04.2018 23:00:00 11,0 7,2 7 4 - - ZZW 1013,7 20
24.04.2018 22:00:00 11,8 7,8 7 4 18 10 ZW 1014,1 20
24.04.2018 21:00:00 12,8 8,0 11 6 25 14 ZW 1014,0 20
24.04.2018 20:00:00 14,1 8,0 11 6 - - ZW 1014,1 20
24.04.2018 19:00:00 - - 11 6 25 14 ZW - -
24.04.2018 18:00:00 - - 11 6 25 14 WZW - -
24.04.2018 17:00:00 - - 11 6 - - WZW - -
24.04.2018 16:00:00 15,5 7,2 14 8 32 18 WZW 1015,5 20
24.04.2018 15:00:00 15,1 6,8 18 10 29 16 WZW 1016,3 20
24.04.2018 14:00:00 13,3 6,6 14 8 - - WZW 1017,1 20
24.04.2018 13:00:00 12,9 6,6 11 6 25 14 WZW 1017,6 20
24.04.2018 12:00:00 10,5 5,5 14 8 22 12 W 1018,7 20
24.04.2018 11:00:00 9,8 4,7 14 8 - - ZW 1018,7 19
24.04.2018 10:00:00 8,4 4,5 14 8 29 16 WZW 1018,7 20
24.04.2018 09:00:00 6,5 4,2 18 10 25 14 WZW 1019,2 20
24.04.2018 08:00:00 5,5 4,2 11 6 - - WZW 1019,2 19
24.04.2018 07:00:00 5,0 4,0 11 6 25 14 WZW 1018,8 19
24.04.2018 06:00:00 5,0 4,2 14 8 22 12 ZW 1018,7 15
24.04.2018 05:00:00 5,0 4,0 14 8 - - WZW 1019,0 19
24.04.2018 04:00:00 5,5 4,3 14 8 22 12 WZW 1019,2 19
24.04.2018 03:00:00 6,1 4,4 11 6 29 16 WZW 1019,2 20
24.04.2018 02:00:00 7,5 5,6 14 8 - - W 1019,3 20
24.04.2018 01:00:00 7,5 5,3 7 4 22 12 W 1019,2 20
24.04.2018 00:00:00 8,5 5,1 11 6 18 10 WZW 1018,8 20
23.04.2018 23:00:00 9,1 5,4 11 6 - - WZW 1018,8 20
23.04.2018 22:00:00 10,0 5,3 7 4 11 6 WZW 1018,3 20
23.04.2018 21:00:00 10,9 5,3 7 4 18 10 W 1017,6 20
23.04.2018 20:00:00 13,0 4,8 11 6 - - W 1017,0 20
23.04.2018 19:00:00 13,8 4,9 14 8 32 18 W 1016,7 20
23.04.2018 18:00:00 14,6 5,6 14 8 29 16 WNW 1016,3 20
23.04.2018 17:00:00 15,4 5,9 14 8 - - W 1015,7 20
23.04.2018 16:00:00 15,8 5,4 14 8 25 14 W 1015,8 20
23.04.2018 15:00:00 15,4 5,4 14 8 29 16 WZW 1016,5 19
23.04.2018 14:00:00 14,6 6,8 14 8 - - W 1016,6 20
23.04.2018 13:00:00 12,9 6,2 14 8 32 18 W 1017,1 20
23.04.2018 12:00:00 13,6 9,3 14 8 29 16 WNW 1016,2 20
23.04.2018 11:00:00 13,3 8,6 14 8 - - WZW 1015,8 14
23.04.2018 10:00:00 12,1 9,4 11 6 18 10 WZW 1015,7 20
23.04.2018 09:00:00 11,1 9,3 11 6 22 12 WZW 1015,7 19
23.04.2018 08:00:00 10,8 10,4 4 2 - - N 1015,2 11
23.04.2018 07:00:00 10,3 9,5 7 4 14 8 WZW 1015,0 13
23.04.2018 06:00:00 10,7 9,9 7 4 18 10 W 1014,6 12
23.04.2018 05:00:00 12,0 11,7 11 6 - - W 1015,0 10
23.04.2018 04:00:00 12,1 11,6 7 4 22 12 ZW 1014,3 11
23.04.2018 03:00:00 11,8 11,4 4 2 7 4 N 1013,8 13
23.04.2018 02:00:00 12,0 11,2 4 2 - - N 1013,7 20
23.04.2018 01:00:00 13,2 11,3 18 10 47 25 W 1014,7 5
23.04.2018 00:00:00 15,0 10,1 7 4 11 6 N 1013,2 20
22.04.2018 23:00:00 15,6 9,8 4 2 - - N 1013,0 20
22.04.2018 22:00:00 16,6 8,6 7 4 14 8 ZZW 1012,3 20
22.04.2018 21:00:00 18,5 8,1 11 6 25 14 ZW 1011,6 20
22.04.2018 20:00:00 20,0 9,3 11 6 - - WZW 1010,7 20
22.04.2018 19:00:00 21,1 7,7 18 10 43 23 ZW 1010,3 20
22.04.2018 18:00:00 21,7 7,8 22 12 43 23 ZW 1010,0 18
22.04.2018 17:00:00 22,8 7,6 22 12 - - ZW 1009,7 20
22.04.2018 16:00:00 23,8 7,6 22 12 40 21 ZW 1009,6 8
22.04.2018 15:00:00 24,4 8,8 18 10 40 21 ZZW 1009,8 20
22.04.2018 14:00:00 25,2 8,4 14 8 - - Z 1010,2 20
22.04.2018 13:00:00 23,7 8,5 14 8 25 14 Z 1011,2 20
22.04.2018 12:00:00 22,6 10,7 11 6 22 12 ZZW 1012,1 17
22.04.2018 11:00:00 20,9 10,6 11 6 - - ZZW 1012,8 20
22.04.2018 10:00:00 19,4 10,0 7 4 18 10 ZZW 1013,5 15
22.04.2018 09:00:00 17,0 9,8 7 4 18 10 ZW 1014,2 14
22.04.2018 08:00:00 15,6 8,9 7 4 - - Z 1014,5 16
22.04.2018 07:00:00 10,7 7,8 4 2 11 6 N 1015,7 12
22.04.2018 06:00:00 9,4 7,4 4 2 4 2 N 1016,2 10
22.04.2018 05:00:00 8,5 7,2 4 2 - - N 1017,1 10
22.04.2018 04:00:00 9,1 7,8 4 2 4 2 N 1017,2 8
22.04.2018 03:00:00 9,1 7,9 4 2 4 2 N 1017,6 7
22.04.2018 02:00:00 10,0 8,0 4 2 - - N 1018,1 8
22.04.2018 01:00:00 11,5 8,3 4 2 7 4 N 1018,5 9
22.04.2018 00:00:00 12,1 8,3 4 2 11 6 N 1018,7 10
21.04.2018 23:00:00 12,9 8,2 4 2 - - N 1019,0 10
21.04.2018 22:00:00 14,7 8,2 4 2 11 6 N 1018,7 12
21.04.2018 21:00:00 16,0 7,8 7 4 14 8 ONO 1018,5 13
21.04.2018 20:00:00 17,8 8,5 7 4 - - ONO 1018,1 13
21.04.2018 19:00:00 19,3 7,9 14 8 25 14 ONO 1018,0 13
21.04.2018 18:00:00 20,0 8,4 14 8 25 14 NO 1018,2 13
21.04.2018 17:00:00 20,7 9,2 14 8 - - NNO 1018,3 10
21.04.2018 16:00:00 20,7 8,9 18 10 25 14 NNO 1018,7 13
21.04.2018 15:00:00 21,5 9,0 7 4 18 10 NO 1019,1 15
21.04.2018 14:00:00 20,2 8,4 4 2 - - N 1019,8 15
21.04.2018 13:00:00 20,6 7,7 7 4 18 10 ONO 1020,3 19
21.04.2018 12:00:00 20,0 7,5 7 4 22 12 NO 1021,0 12
21.04.2018 11:00:00 18,8 7,6 11 6 - - NO 1021,3 10
21.04.2018 10:00:00 16,6 8,8 7 4 11 6 NO 1021,7 10
21.04.2018 09:00:00 14,8 11,2 4 2 4 2 N 1022,0 16
21.04.2018 08:00:00 9,0 7,2 4 2 - - N 1023,3 15
21.04.2018 07:00:00 5,9 5,1 4 2 7 4 N 1023,7 2,6
21.04.2018 06:00:00 6,5 5,7 4 2 4 2 N 1023,2 9
21.04.2018 05:00:00 7,0 6,1 4 2 - - N 1023,5 11
21.04.2018 04:00:00 8,5 7,4 4 2 4 2 N 1023,3 11
21.04.2018 03:00:00 9,0 7,7 4 2 4 2 N 1023,6 10
21.04.2018 02:00:00 11,0 8,4 4 2 - - N 1023,5 16
21.04.2018 01:00:00 12,8 9,5 4 2 7 4 N 1023,2 18
21.04.2018 00:00:00 14,1 9,8 4 2 11 6 N 1023,0 17
20.04.2018 23:00:00 14,8 9,6 4 2 - - N 1022,8 19
20.04.2018 22:00:00 14,5 9,5 4 2 4 2 N 1022,7 20
20.04.2018 21:00:00 16,8 9,3 4 2 11 6 N 1022,1 20
20.04.2018 20:00:00 21,0 8,8 7 4 - - N 1020,8 20
20.04.2018 19:00:00 22,8 8,7 11 6 18 10 NNW 1020,5 20
20.04.2018 18:00:00 23,9 8,2 11 6 14 8 NW 1020,6 18
20.04.2018 17:00:00 23,5 7,9 7 4 - - W 1021,0 20
20.04.2018 16:00:00 23,9 7,1 11 6 25 14 N 1021,3 20
20.04.2018 15:00:00 24,0 5,8 7 4 25 14 NNW 1021,7 19
20.04.2018 14:00:00 23,7 6,4 7 4 - - N 1022,1 20
20.04.2018 13:00:00 24,0 7,3 4 2 22 12 N 1022,3 20
20.04.2018 12:00:00 23,4 7,5 4 2 11 6 N 1022,7 20
20.04.2018 11:00:00 22,5 8,5 4 2 - - N 1023,0 20
20.04.2018 10:00:00 20,7 10,0 4 2 4 2 N 1023,2 15
20.04.2018 09:00:00 14,3 9,7 4 2 4 2 N 1024,7 19
20.04.2018 08:00:00 8,2 5,9 4 2 - - N 1026,5 19
20.04.2018 07:00:00 5,1 4,5 0 0 4 2 N 1027,2 8
20.04.2018 06:00:00 5,6 4,3 4 2 7 4 N 1027,0 14
20.04.2018 05:00:00 6,0 4,9 4 2 - - N 1027,2 14
20.04.2018 04:00:00 6,8 5,3 0 0 0 0 N 1027,2 17
20.04.2018 03:00:00 8,0 5,5 4 2 0 0 N 1027,2 18
20.04.2018 02:00:00 8,9 5,8 4 2 - - N 1027,2 3,8
20.04.2018 01:00:00 10,8 6,1 4 2 7 4 N 1026,9 20
20.04.2018 00:00:00 11,9 6,0 4 2 14 8 N 1026,7 20
19.04.2018 23:00:00 16,9 5,3 7 4 - - ZZO 1025,7 19
19.04.2018 22:00:00 18,3 4,8 7 4 14 8 ZZO 1025,5 20
19.04.2018 21:00:00 17,8 5,8 7 4 18 10 ZO 1025,4 17
19.04.2018 20:00:00 22,2 5,0 11 6 - - ZO 1024,0 14
19.04.2018 19:00:00 24,2 4,4 14 8 22 12 ZO 1023,6 20
19.04.2018 18:00:00 24,7 3,3 14 8 29 16 ZZO 1023,6 20
19.04.2018 17:00:00 25,2 3,4 18 10 - - ZO 1023,7 20
19.04.2018 16:00:00 25,7 3,9 14 8 32 18 ZO 1024,0 20
19.04.2018 15:00:00 24,3 3,2 18 10 36 19 ZO 1024,9 20
19.04.2018 14:00:00 23,9 3,1 14 8 - - ZZO 1025,2 20

tt = temperatuur
td = dauwpunt
ff = windsnelheid
fx = windstoten
dd = windrichting
ppp = luchtdruk
vv = zicht

Weerstations in de omgeving